Weather History for Siofok, Hungary

Change the Weather History Date:

Tuesday, July 16, 2013

  Actual Average Record
Temperature  
Mean Temperature 72 °F -  
Max Temperature 82 °F - - ()
Min Temperature 63 °F - - ()
Cooling Degree Days 8    
Growing Degree Days 22 (Base 50)    
Moisture  
Dew Point 52 °F    
Average Humidity 42    
Maximum Humidity 64    
Minimum Humidity 20    
Precipitation  
Precipitation 0.00 in - - ()
Sea Level Pressure  
Sea Level Pressure 30.18 in    
Wind  
Wind Speed 9 mph ()    
Max Wind Speed 20 mph    
Max Gust Speed -    
Visibility 18.4 miles    
Events      
T = Trace of Precipitation, MM = Missing Value Source: Averaged Metar Reports

Daily Weather History Graph

Daily Weather History Graph

Search for Another Location

Airport:

Trip Planner

Search our weather history database for the weather conditions in past years. The results will help you decide how hot, cold, wet, or windy it might be!

Date:

Astronomy

Jul. 16, 2013 Rise Set
Actual Time 5:09 AM CEST 8:37 PM CEST
Civil Twilight 4:31 AM CEST 9:15 PM CEST
Nautical Twilight 3:41 AM CEST 10:05 PM CEST
Astronomical Twilight 2:35 AM CEST 11:10 PM CEST
Moon 1:49 PM CEST (7/16) No Moon Set
Length of Visible Light 16h 44m
Length of Day
15h 28m
First Quarter, 53% of the Moon is Illuminated
Jul 16
First Quarter
Jul 22
Full
Jul 29
Last Quarter
Aug 6
New
Aug 14
First Quarter

Hourly Weather History & Observations

Time (CEST) Temp. Dew Point Humidity Pressure Visibility Wind Dir Wind Speed Gust Speed Precip Events Conditions
12:00 AM 69 °F 51 °F 41% 30.14 in 19 mi NNE 15.7 mph - -   Partly Cloudy
1:00 AM 68 °F 53 °F 50% 30.14 in 19 mi North 8.9 mph - -   Partly Cloudy
2:00 AM 67 °F 53 °F 50% 30.16 in 19 mi North 15.7 mph - -   Partly Cloudy
3:00 AM 66 °F 52 °F 52% 30.16 in 19 mi North 6.9 mph - -   Partly Cloudy
4:00 AM 64 °F 51 °F 54% 30.17 in 19 mi North 17.9 mph - -   Partly Cloudy
5:00 AM 64 °F 55 °F 64% 30.17 in 16 mi North 20.1 mph - -   Partly Cloudy
6:00 AM 64 °F 54 °F 63% 30.18 in 16 mi North 9.2 mph - -   Partly Cloudy
7:00 AM 64 °F 54 °F 60% 30.19 in 25 mi North 10.4 mph - -   Partly Cloudy
8:00 AM 65 °F 53 °F 57% 30.20 in 25 mi NNE 17.9 mph - -   Partly Cloudy
9:00 AM 66 °F 51 °F 49% 30.22 in 25 mi NNE 11.2 mph - -   Partly Cloudy
10:00 AM 69 °F 51 °F 43% 30.22 in 25 mi NNE 8.9 mph - -   Partly Cloudy
11:00 AM 71 °F 50 °F 36% 30.22 in 25 mi NNE 6.7 mph - -   Partly Cloudy
12:00 PM 71 °F 51 °F 38% 30.22 in 25 mi NW 4.5 mph - -   Partly Cloudy
1:00 PM 75 °F 49 °F 29% 30.21 in 25 mi NE 2.2 mph - -   Partly Cloudy
2:00 PM 76 °F 51 °F 31% 30.20 in 25 mi NNE 2.2 mph - -   Partly Cloudy
3:00 PM 77 °F 50 °F 27% 30.19 in 25 mi NNE 4.5 mph - -   Partly Cloudy
4:00 PM 79 °F 49 °F 24% 30.18 in 25 mi North 2.2 mph - -   Partly Cloudy
5:00 PM 80 °F 50 °F 25% 30.17 in 25 mi NNW 2.2 mph - -   Partly Cloudy
6:00 PM 81 °F 49 °F 22% 30.16 in 25 mi West 2.2 mph - -   Partly Cloudy
7:00 PM 82 °F 48 °F 20% 30.16 in 25 mi NNE 2.2 mph - -   Partly Cloudy
8:00 PM 80 °F 50 °F 24% 30.16 in 25 mi ENE 2.2 mph - -   Partly Cloudy
9:00 PM 75 °F 57 °F 44% 30.17 in 19 mi WNW 6.7 mph - -   Partly Cloudy
10:00 PM 73 °F 60 °F 54% 30.18 in 19 mi West 6.7 mph - -   Partly Cloudy
11:00 PM 70 °F 54 °F 47% 30.19 in 19 mi SW 4.5 mph - -   Partly Cloudy